SCP
0 0 0 0 0 0 0 0 0 0 0 0 0 0 0 0 0 0 0 0 0 0 0 0 0 0 0 0 0 0 0 0 0 0 0 0 0 0 0 0 0 0 0
0 0 0 0 0 0 0 0 0 0 0 0 0 0 0 0 0 0 0 0 0 0 0 0 0 0 0 0 0 0 0 0 0 0 0 0 0 0 0 0 0 0 0
0 0 0 0 0 0 0 0 0 0 0 0 0 0 0 0 0 0 0 0 0 0 0 0 0 0 0 0 0 0 0 0 0 0 0 0 0 0 0 0 0 0 0
0 0 0 0 0 0 0 0 0 0 0 0 0 0 0 0 0 0 0 0 0 0 0 0 0 0 0 0 0 0 0 0 0 0 0 0 0 0 0 0 0 0 0
0 0 0 0 0 0 0 0 0 0 0 0 0 0 0 0 0 0 0 0 0 0 0 0 0 0 0 0 0 0 0 0 0 0 0 0 0 0 0 0 0 0 0
0 0 0 0 0 0 0 0 0 0 0 0 0 0 0 0 0 0 0 0 0 0 0 0 0 0 0 0 0 0 0 0 0 0 0 0 0 0 0 0 0 0 0
0 0 0 0 0 0 0 0 0 0 0 0 0 0 0 0 0 0 0 0 0 0 0 0 0 0 0 0 0 0 0 0 0 0 0 0 0 0 0 0 0 0 0
0 0 0 0 0 0 0 0 0 0 0 0 0 0 0 0 0 0 0 0 0 0 0 0 0 0 0 0 0 0 0 0 0 0 0 0 0 0 0 0 0 0 0
0 0 0 0 0 0 0 0 0 0 0 0 0 0 0 0 0 0 0 0 0 0 0 0 0 0 0 0 0 0 0 0 0 0 0 0 0 0 0 0 0 0 0
0 0 0 0 0 0 0 0 0 0 0 0 0 0 0 0 0 0 0 0 0 0 0 0 0 0 0 0 0 0 0 0 0 0 0 0 0 0 0 0 0 0 0
0 0 0 0 0 0 0 0 0 0 0 0 0 0 0 0 0 0 0 0 0 0 0 0 0 0 0 0 0 0 0 0 0 0 0 0 0 0 0 0 0 0 0
0 0 0 0 0 0 0 0 0 0 0 0 0 0 0 0 0 0 0 0 0 0 0 0 0 0 0 0 0 0 0 0 0 0 0 0 0 0 0 0 0 0 0
0 0 0 0 0 0 0 0 0 0 0 0 0 0 0 0 0 0 0 0 0 0 0 0 0 0 0 0 0 0 0 0 0 0 0 0 0 0 0 0 0 0 0
0 0 0 0 0 0 0 0 0 0 0 0 0 0 0 0 0 0 0 0 0 0 0 0 0 0 0 0 0 0 0 0 0 0 0 0 0 0 0 0 0 0 0
0 0 0 0 0 0 0 0 0 0 0 0 0 0 0 0 0 0 0 0 0 0 0 0 0 0 0 0 0 0 0 0 0 0 0 0 0 0 0 0 0 0 0
0 0 0 0 0 0 0 0 0 0 0 0 0 0 0 0 0 0 0 0 0 0 0 0 0 0 0 0 0 0 0 0 0 0 0 0 0 0 0 0 0 0 0
0 0 0 0 0 0 0 0 0 0 0 0 0 0 0 0 0 0 0 0 0 0 0 0 0 0 0 0 0 0 0 0 0 0 0 0 0 0 0 0 0 0 0
0 0 0 0 0 0 0 0 0 0 0 0 0 0 0 0 0 0 0 0 0 0 0 0 0 0 0 0 0 0 0 0 0 0 0 0 0 0 0 0 0 0 0
0 0 0 0 0 0 0 0 0 0 0 0 0 0 0 0 0 0 0 0 0 0 0 0 0 0 0 0 0 0 0 0 0 0 0 0 0 0 0 0 0 0 0
0 0 0 0 0 0 0 0 0 0 0 0 0 0 0 0 0 0 0 0 0 0 0 0 0 0 0 0 0 0 0 0 0 0 0 0 0 0 0 0 0 0 0
0 0 0 0 0 0 0 0 0 0 0 0 0 0 0 0 0 0 0 0 0 0 0 0 0 0 0 0 0 0 0 0 0 0 0 0 0 0 0 0 0 0 0
0 0 0 0 0 0 0 0 0 0 0 0 0 0 0 0 0 0 0 0 0 0 0 0 0 0 0 0 0 0 0 0 0 0 0 0 0 0 0 0 0 0 0
0 0 0 0 0 0 0 0 0 0 0 0 0 0 0 0 0 0 0 0 0 0 0 0 0 0 0 0 0 0 0 0 0 0 0 0 0 0 0 0 0 0 0
0 0 0 0 0 0 0 0 0 0 0 0 0 0 0 0 0 0 0 0 0 0 0 0 0 0 0 0 0 0 0 0 0 0 0 0 0 0 0 0 0 0 0
0 0 0 0 0 0 0 0 0 0 0 0 0 0 0 0 0 0 0 0 0 0 0 0 0 0 0 0 0 0 0 0 0 0 0 0 0 0 0 0 0 0 0
0 0 0 0 0 0 0 0 0 0 0 0 0 0 0 0 0 0 0 0 0 0 0 0 0 0 0 0 0 0 0 0 0 0 0 0 0 0 0 0 0 0 0
Wind_Speed
1 1 4 5 6 7 7 8 9 10 10 11 11 11 12 14 14 13 13 13 13 13 13 13 12 12 12 12 12 12 12 11 11 11 11 11 11 11 11 11 10 8 11
3 2 5 6 6 7 7 8 9 10 11 11 11 11 12 13 13 13 13 13 13 13 12 12 12 12 12 12 12 11 11 10 11 11 10 10 11 11 10 11 10 7 11
4 3 4 6 6 7 7 8 9 10 10 11 11 12 12 12 12 12 12 12 12 12 12 11 11 12 11 11 11 10 10 10 10 10 9 5 7 10 10 10 10 10 10
5 3 3 6 7 7 8 8 9 9 10 10 11 11 11 11 11 11 11 11 11 11 11 11 11 11 10 10 10 9 9 9 9 9 5 4 5 9 10 10 10 10 10
4 2 3 7 7 7 8 8 8 9 9 9 10 10 10 11 10 10 10 10 10 10 10 10 10 9 9 9 9 9 8 9 8 6 4 3 3 8 9 10 10 9 9
4 2 3 7 7 7 8 8 8 9 9 9 9 9 10 10 10 9 9 9 9 9 9 9 9 9 8 8 8 8 8 8 7 4 4 3 2 7 9 9 9 9 9
4 2 2 7 7 7 7 7 8 8 8 8 8 8 9 9 8 8 8 8 8 8 8 8 8 8 8 7 7 7 7 8 5 4 3 3 3 6 8 8 8 8 8
4 3 2 6 7 6 7 7 7 7 7 7 7 7 7 7 7 7 7 7 7 8 8 7 7 7 7 7 6 6 6 6 5 4 3 3 4 5 7 8 8 8 8
3 3 2 2 3 5 5 6 6 6 6 6 6 6 6 6 6 6 6 7 7 7 7 7 6 6 6 5 5 5 6 6 4 3 4 3 5 6 7 8 8 8 8
2 2 1 1 2 1 2 4 5 5 5 5 5 5 5 5 5 5 5 5 6 6 7 7 6 6 6 5 5 5 5 4 3 4 2 3 6 7 7 8 9 8 8
2 1 1 1 1 1 1 1 2 3 3 3 3 4 3 2 2 2 3 4 5 5 5 5 5 5 4 4 4 5 4 2 3 2 2 4 5 6 7 8 8 8 8
3 2 1 1 1 1 1 1 1 2 2 2 2 2 2 2 1 1 1 2 3 3 3 3 3 4 3 1 2 3 2 3 2 2 2 5 5 6 7 7 7 8 8
3 3 2 2 1 1 0 1 1 1 1 2 2 2 2 2 1 1 1 1 1 0 0 0 0 1 1 2 2 2 2 2 2 2 3 5 6 6 6 6 7 7 8
3 3 2 2 1 1 1 1 1 1 1 1 1 2 2 1 1 1 1 1 1 0 1 0 1 1 1 2 2 3 2 2 2 2 2 5 5 5 5 5 6 7 7
4 4 3 3 2 2 1 0 1 1 1 1 1 1 2 1 1 0 0 0 0 0 1 1 1 1 1 1 2 3 2 2 2 2 2 5 5 5 5 5 5 6 6
5 4 3 3 3 2 2 1 0 1 1 1 1 1 1 1 1 1 0 0 0 0 1 1 1 1 1 1 1 1 2 2 2 2 2 3 5 5 5 5 5 5 4
6 4 4 4 3 3 2 2 1 1 1 1 0 1 1 1 1 1 1 0 0 1 1 1 1 2 1 1 0 1 1 2 2 3 2 1 2 4 5 5 5 4 4
5 5 5 4 4 4 3 2 1 1 1 1 0 0 1 1 2 2 1 0 0 1 1 2 1 2 1 1 0 0 0 1 2 3 2 2 1 2 3 4 4 4 4
6 5 5 4 4 4 3 2 1 1 1 1 1 0 0 1 2 2 1 1 1 1 1 1 2 2 1 1 0 0 0 0 1 2 2 3 2 2 2 3 4 4 5
6 5 5 5 4 4 3 2 1 1 0 0 1 0 1 1 2 2 1 1 1 2 1 1 2 2 1 1 1 1 1 1 0 1 2 2 2 3 2 2 2 3 5
5 5 5 5 4 3 2 2 1 1 0 0 1 1 1 1 2 2 2 2 2 2 1 2 2 2 1 1 1 2 2 1 1 0 0 1 1 2 2 2 2 1 2
6 6 6 6 5 4 3 3 2 2 1 1 0 0 0 1 1 2 2 2 2 2 2 2 1 1 1 1 1 1 2 2 2 1 1 1 1 1 2 2 2 2 1
6 7 6 6 5 4 4 3 2 2 2 1 1 0 1 0 1 1 2 2 2 2 2 2 1 2 1 1 1 2 1 1 2 2 1 1 0 0 1 1 1 1 2
8 6 5 5 5 5 5 4 4 3 3 2 1 1 0 0 1 1 2 2 2 2 2 2 2 1 2 1 1 1 1 2 1 1 2 2 1 0 1 1 1 2 2
7 6 6 5 4 4 5 6 5 3 2 1 1 1 0 0 0 1 1 2 2 2 2 2 2 2 2 2 1 1 1 1 1 1 1 2 2 1 1 1 1 1 2
5 5 5 5 5 5 5 5 6 5 4 3 2 1 1 0 0 0 1 1 2 2 2 2 2 2 2 2 1 2 2 2 2 2 2 1 1 2 1 1 1 1 1
Wind_Direction
191 200 146 122 114 111 109 108 110 111 113 116 118 123 129 133 136 137 137 136 136 135 133 133 134 135 137 137 137 136 135 137 138 140 141 143 142 140 141 140 137 136 137
156 163 142 125 118 115 114 112 112 113 114 117 119 121 127 130 135 136 137 137 137 136 135 135 138 137 137 136 139 139 139 141 142 145 144 144 145 145 145 144 144 140 141
135 144 144 130 122 116 113 115 117 116 118 120 120 121 124 128 131 134 137 139 139 139 138 137 138 136 138 138 138 141 143 145 146 146 144 140 146 148 147 149 148 146 145
134 130 137 129 124 118 114 115 116 118 120 122 123 124 125 128 132 133 135 137 140 140 139 140 139 138 139 140 141 142 144 147 147 146 141 141 149 153 151 152 152 150 149
122 117 145 130 127 122 117 116 116 118 121 122 123 124 126 129 132 132 132 134 139 141 142 143 143 142 141 141 143 143 143 144 146 139 126 131 139 156 157 156 156 156 154
118 118 145 133 132 128 124 119 118 118 121 122 123 125 128 131 133 133 133 134 138 139 141 145 146 145 144 145 147 147 148 147 138 126 126 134 149 167 165 161 160 159 158
127 117 140 135 131 129 128 126 123 119 121 125 126 127 130 133 136 138 139 141 143 143 143 145 149 148 149 152 154 155 156 152 135 131 139 150 168 174 170 166 164 164 165
129 119 127 141 135 131 130 133 131 126 124 127 130 130 131 134 139 144 147 149 151 152 151 153 155 156 156 156 158 161 164 163 150 151 153 162 176 177 177 172 170 171 174
108 106 101 122 139 137 135 137 136 131 127 127 132 136 137 138 140 144 151 156 158 159 160 163 166 163 161 160 163 168 171 174 146 155 170 171 194 194 189 181 174 174 175
92 89 91 84 81 93 118 141 140 135 131 130 132 136 134 135 139 148 156 161 162 166 170 175 181 176 174 170 174 174 172 169 147 160 168 187 202 202 197 188 184 182 183
128 88 82 82 74 76 91 148 132 125 116 118 121 131 115 88 100 134 169 173 175 174 177 185 187 182 176 175 174 170 165 141 145 160 177 198 205 209 203 193 190 192 193
186 193 172 164 114 73 134 75 56 73 67 67 62 72 75 75 81 114 152 184 182 178 186 189 180 175 172 145 169 170 142 147 158 178 199 205 205 210 208 202 199 200 203
187 190 193 182 160 124 55 67 57 59 60 60 63 70 76 71 51 54 50 30 22 128 116 115 203 147 150 149 154 159 157 159 168 196 211 211 207 206 208 207 202 203 206
167 194 199 184 166 165 110 69 83 80 72 72 68 83 89 83 65 56 58 37 34 47 89 83 134 132 135 157 163 169 174 178 183 185 209 209 203 202 208 209 206 205 204
177 189 192 178 178 175 145 167 125 117 123 117 98 103 115 116 110 104 69 66 73 119 137 150 135 133 143 158 170 169 180 195 197 194 214 213 202 201 206 213 216 215 211
188 192 184 179 179 163 161 169 150 145 124 101 103 129 144 145 151 139 85 45 52 121 120 123 132 131 149 154 167 180 194 199 202 199 207 218 212 206 207 210 211 212 210
190 186 182 182 171 168 180 185 166 149 123 115 139 135 152 161 167 158 140 150 201 134 116 100 85 92 111 119 175 228 217 209 196 193 196 199 215 220 210 205 209 211 216
185 184 190 183 171 176 178 180 166 137 135 154 152 132 165 164 159 150 151 186 151 125 124 119 102 101 96 101 342 283 246 206 203 195 192 201 205 218 217 209 209 215 228
189 184 181 186 177 179 176 168 160 123 137 160 141 134 179 166 160 147 146 143 114 114 123 143 110 125 129 121 174 329 317 225 218 203 204 208 206 209 216 222 219 226 234
187 185 183 185 185 170 152 132 102 76 70 105 144 177 173 161 150 142 135 120 115 109 99 111 107 95 111 128 73 32 1 317 219 211 222 213 209 211 211 222 234 244 238
178 183 186 183 182 159 145 151 154 192 215 194 197 196 188 166 148 139 133 113 110 115 119 114 115 97 71 79 75 23 6 15 33 269 242 231 224 211 199 211 223 237 250
185 189 188 186 178 174 169 160 152 150 166 186 216 154 188 167 158 153 140 132 127 121 102 98 106 107 72 74 109 83 10 359 11 31 42 207 228 197 205 205 205 207 223
193 195 196 191 181 177 161 130 110 83 55 47 16 318 286 187 147 139 144 141 135 137 140 128 127 133 137 74 92 132 141 236 325 355 7 22 9 210 225 212 217 215 215
200 191 189 183 178 172 161 159 158 162 179 202 204 209 284 137 135 147 146 140 138 142 145 155 138 151 147 149 83 89 142 162 165 329 342 356 358 304 261 245 256 251 235
193 184 180 173 178 174 172 175 172 171 182 177 161 144 139 2 261 179 149 137 138 143 151 149 137 141 148 157 161 151 126 103 150 168 278 322 340 316 286 256 257 266 260
180 176 171 171 186 184 180 179 179 178 175 167 186 191 200 247 292 261 147 146 156 159 164 165 152 148 156 152 152 157 161 168 183 178 208 261 301 311 325 300 263 259 262